sat.trackr.live / text

‹ back to catalog

IPERDRONE.0

NORAD 60520 · 2024-149BE

PAYLOAD ACTIVE UNKNOWN

§ Identity

Operator
Country
IT
Launch date
2024-08-16
Launch site
AFWTR
Launch vehicle
Mass (kg)
RCS (m²)

External: N2YO · Heavens-Above · Gunter

§ Orbital elements

Epoch: 2026-05-25T03:49:42.324960Z

Period
92.12 min
Inclination
97.3772°
Eccentricity
0.0001121
Mean motion
15.63150510 rev/d
Perigee alt
377.8 km
Apogee alt
379.3 km
Semi-major
6,756.7 km
B*
7.2921e-4
RAAN
237.2959°
Arg perigee
308.7047°
Mean anomaly
51.4111°
Rev number
9,931

§ Raw data

IPERDRONE.01 60520U 24149BE  26145.15951765  .00066801  00000+0  72921-3 0  99942 60520  97.3772 237.2959 0001121 308.7047  51.4111 15.63150510 99313

JSON: /api/v1/satellites/60520 · /tle

For live sub-satellite position, see the globe view (requires WebGL).

§ Visibility from observer

Set your observer location to see the next 7 days of passes ≥ 10°. The values pass through the URL so the page stays shareable.

No JS? Fill the form by hand. The geolocation button needs JavaScript.

§ Radio — SatNOGS DB

ModeDescriptionDownlinkUplink
FM Mode S - Transmitter 2.225 GHz
FSK Mode U - FSK9k6 401.110 MHz

2 transmitters · refreshed weekly from db.satnogs.org